SCP
1 1 1 1 0 0 0 0 0 0 0 0 0 0 1 1 0 0 0 1 2 2 1 1 1 1 1 1 1 1 1 0 0 0 0 0 0 0 0 0 0 0 0 0 0 0 0 0 0
1 1 1 1 0 0 0 0 0 0 0 0 1 0 1 1 1 1 1 1 2 2 2 1 1 1 1 1 1 1 1 0 0 0 0 0 0 0 0 0 0 0 0 0 0 0 0 0 0
0 0 1 0 0 0 0 0 0 0 1 1 1 1 1 1 1 1 1 2 3 2 2 1 2 1 1 1 1 1 1 0 0 0 0 0 0 0 0 0 0 0 0 0 0 0 0 0 0
0 0 0 0 0 0 0 1 1 1 1 1 1 1 1 1 1 1 2 3 3 2 2 2 2 2 2 1 1 1 1 0 0 0 0 0 0 0 0 0 0 0 0 0 0 0 0 0 0
0 0 0 0 0 0 1 1 1 1 1 1 1 1 1 1 1 2 3 3 3 3 2 2 2 2 2 1 1 1 0 0 0 0 0 0 0 0 0 0 0 0 0 0 0 0 0 0 0
0 0 0 0 0 0 1 1 1 1 2 2 1 1 1 2 2 2 2 3 4 4 3 2 2 2 2 1 1 1 0 0 0 0 0 0 0 0 0 0 0 0 0 0 0 0 0 0 0
0 0 0 0 0 1 1 1 1 2 2 2 1 1 1 2 2 2 2 3 4 4 3 2 1 1 1 1 1 1 0 0 0 0 0 0 0 0 0 0 0 0 0 0 0 0 0 0 0
0 0 0 0 0 1 1 1 2 2 2 2 1 1 2 2 2 2 2 2 3 3 2 1 1 1 1 1 1 1 0 0 0 0 0 0 0 0 0 0 0 0 0 0 0 0 0 0 0
0 0 0 0 0 1 1 1 1 1 2 2 1 2 2 2 2 2 2 2 3 2 1 1 1 1 1 1 1 1 0 0 0 0 0 0 0 0 0 0 0 0 0 0 0 0 0 0 0
0 0 0 0 0 1 1 1 1 1 1 2 2 3 4 3 2 2 2 2 2 2 2 1 1 1 1 1 1 1 1 1 0 0 0 0 0 0 0 0 0 0 0 0 0 0 0 0 0
0 0 0 0 0 1 1 1 1 1 1 2 4 5 5 3 2 2 2 2 2 2 2 2 2 1 1 1 1 1 1 1 1 0 0 0 0 0 0 0 0 0 0 0 0 0 0 0 0
0 0 0 0 1 1 0 1 1 1 1 2 4 6 6 4 2 2 2 1 1 2 2 2 2 2 1 1 1 1 1 1 1 0 0 0 0 0 0 0 0 0 0 0 0 0 0 0 0
0 0 0 1 1 1 1 1 1 1 1 2 4 6 5 3 2 2 2 2 2 2 2 2 2 2 1 1 1 1 1 1 1 0 0 0 0 0 0 0 0 0 0 0 0 0 0 0 0
0 0 0 0 1 1 1 1 1 1 2 3 4 5 4 3 2 2 2 2 2 2 2 2 2 2 1 0 0 1 1 1 0 0 0 0 0 0 0 0 0 0 0 0 0 0 0 0 0
0 0 0 0 0 1 1 1 1 2 2 3 4 3 3 3 3 3 2 2 3 3 2 2 2 2 1 1 0 0 0 0 1 0 0 0 0 0 0 0 0 0 0 0 0 0 0 0 0
0 0 0 0 0 1 1 1 1 2 3 3 3 3 3 3 3 3 2 3 3 4 4 3 2 2 1 1 1 0 0 1 1 0 0 0 0 0 0 0 0 0 0 0 0 0 0 0 0
0 0 0 0 0 1 1 1 1 2 2 3 3 4 4 4 3 3 3 3 4 5 5 4 2 2 2 1 1 0 0 1 1 0 0 0 0 0 0 0 0 0 0 0 0 0 0 0 0
0 0 0 0 0 0 1 1 1 2 2 3 4 4 4 4 3 2 3 3 4 6 6 4 3 2 2 1 1 1 0 0 0 0 0 0 0 0 0 0 0 0 0 0 0 0 0 0 0
0 0 0 0 0 0 1 1 1 2 2 4 5 4 4 3 3 2 3 3 4 6 6 5 3 2 1 1 1 1 1 0 0 0 0 0 0 1 1 1 0 0 0 0 0 0 0 0 0
0 0 0 0 0 0 0 1 1 1 2 4 5 4 3 3 2 2 3 3 4 5 6 5 3 2 1 1 1 1 1 1 0 0 0 0 1 1 1 1 1 1 0 0 0 0 0 0 0
0 0 0 0 0 0 0 0 1 1 2 4 5 3 2 2 2 2 2 3 3 4 5 4 3 2 2 2 1 1 1 1 1 1 1 1 1 1 1 1 1 1 1 0 0 0 1 1 1
0 0 0 0 0 0 0 0 0 1 2 3 4 3 2 2 2 2 2 2 3 3 4 3 3 2 2 2 2 2 1 1 1 1 1 1 1 1 1 1 1 1 1 1 0 0 1 1 1
0 0 0 0 0 0 0 0 0 1 1 3 3 3 2 2 2 2 2 2 3 4 3 3 3 3 3 3 2 2 2 1 1 1 1 1 1 1 1 1 1 1 1 1 0 0 1 1 1
0 0 0 0 0 0 0 0 0 0 1 1 2 2 2 2 2 3 2 3 3 4 4 3 3 3 3 3 3 3 2 2 1 1 1 1 1 1 2 2 1 1 1 1 1 1 1 1 1
0 0 0 0 0 0 0 0 0 0 0 1 1 1 2 2 3 3 3 3 4 4 4 3 3 3 3 3 3 3 2 2 2 1 1 1 1 2 2 2 2 1 1 1 1 1 1 1 1
0 0 0 0 0 0 0 0 0 0 0 1 1 2 2 3 4 4 4 4 4 5 4 3 3 3 3 3 3 2 2 2 2 1 1 1 1 1 2 2 1 1 1 1 2 2 1 1 1
0 0 0 0 0 0 0 0 0 0 0 1 1 2 3 4 4 4 4 4 4 4 4 3 3 3 3 3 2 2 2 2 2 1 1 1 1 1 1 1 1 1 1 1 2 1 1 1 1
0 0 0 0 0 0 0 0 0 0 0 1 1 3 3 3 3 3 3 3 3 3 3 3 3 3 4 3 3 3 2 2 2 1 1 1 1 1 1 1 1 1 1 1 1 1 1 1 1
0 0 0 0 0 0 0 0 0 0 0 1 1 3 3 3 2 2 2 3 3 3 2 2 2 3 3 4 4 3 3 2 2 2 1 1 1 1 1 1 1 1 1 1 0 0 0 1 1
0 0 0 0 0 0 0 0 0 0 0 1 1 2 3 3 2 2 3 3 3 2 2 2 2 2 3 4 4 3 3 3 2 2 2 1 1 1 1 1 1 1 1 0 0 0 0 0 1
Wind_Speed
5 4 2 2 6 6 3 3 2 3 3 2 5 6 7 4 2 4 2 6 8 8 7 10 13 13 13 13 13 13 13 13 13 13 13 13 12 12 12 12 12 11 11 12 12 12 13 13 13
4 4 1 4 7 4 3 3 2 2 4 5 6 6 6 5 4 7 4 6 9 8 6 9 14 13 13 13 12 12 12 12 12 12 12 12 12 12 12 11 11 11 11 11 12 12 13 13 13
4 2 3 5 4 3 1 0 3 4 3 3 5 5 5 4 5 5 5 10 9 7 6 8 14 13 13 12 12 12 12 12 11 11 11 11 11 11 11 11 11 11 11 11 11 12 12 12 12
3 3 5 6 3 0 2 2 4 5 4 5 5 6 5 3 4 6 11 11 9 6 5 8 14 13 13 12 12 12 11 11 11 10 10 10 10 10 11 10 10 10 10 10 11 12 12 11 11
3 5 7 5 3 2 1 2 3 3 3 4 5 6 4 4 9 12 11 10 9 6 5 7 13 13 12 12 11 11 11 11 10 9 9 9 10 10 10 10 10 9 10 10 11 11 10 10 10
5 5 6 2 2 1 1 2 3 5 4 4 5 5 3 4 9 11 10 8 7 7 5 6 12 12 12 11 11 11 10 10 9 9 9 9 9 9 9 9 9 9 10 10 10 10 9 9 9
4 5 3 2 0 0 2 2 3 4 4 3 5 6 3 4 6 9 8 8 7 6 5 4 5 7 10 10 10 10 10 9 9 8 9 9 9 9 9 8 9 9 9 9 9 9 9 8 8
5 6 3 1 2 2 3 3 2 4 4 4 5 7 6 6 9 9 8 7 6 5 4 3 3 4 4 5 9 10 9 9 8 8 8 8 8 8 8 7 7 8 8 8 9 8 8 8 8
4 6 1 3 4 3 3 3 2 3 5 3 3 4 7 14 13 11 8 6 6 6 3 3 4 3 4 3 6 7 8 7 7 6 7 6 3 3 4 5 6 7 7 7 8 7 7 7 7
5 3 4 4 4 4 5 4 5 4 4 3 5 8 14 15 13 13 11 10 9 8 6 4 4 4 3 3 3 2 2 3 3 3 4 3 3 2 3 3 5 6 6 6 6 6 7 5 3
3 3 2 1 2 4 5 4 3 7 4 6 10 14 16 14 12 11 10 9 9 7 7 5 4 4 3 2 2 2 2 2 2 3 3 3 2 2 2 1 1 2 3 3 3 4 3 3 2
2 1 1 1 2 4 5 5 4 4 5 6 13 17 17 15 13 12 11 9 7 7 7 6 5 4 4 3 2 2 2 1 1 2 3 2 1 1 1 1 1 1 1 2 2 2 2 2 2
2 1 1 1 3 3 5 4 3 1 4 11 13 15 15 14 11 7 6 6 7 8 7 6 6 5 4 3 2 3 2 2 2 2 2 3 2 2 1 1 1 1 1 1 2 2 2 2 2
1 1 2 1 3 2 5 2 3 1 8 12 13 12 12 11 10 8 8 8 8 8 8 7 7 6 5 3 3 2 3 2 2 2 3 4 3 2 2 2 1 1 1 1 1 1 2 1 1
2 4 5 2 2 2 5 2 1 4 10 11 11 10 9 8 8 9 10 10 9 8 7 7 7 6 6 5 4 3 3 3 2 2 3 4 4 3 3 2 2 2 2 2 1 1 2 1 1
5 5 3 3 1 1 5 3 3 6 10 9 8 8 8 7 7 8 8 7 7 7 7 8 8 7 7 5 5 3 3 3 3 3 3 4 4 4 3 3 3 2 2 2 2 2 1 1 1
5 2 2 4 1 1 3 4 2 6 9 8 7 7 7 6 6 7 8 8 8 9 8 8 7 7 7 6 4 3 2 3 3 2 3 3 4 5 4 3 3 3 2 2 2 2 2 2 1
1 1 2 3 3 2 2 3 2 6 8 8 7 6 6 8 9 7 7 7 8 7 7 7 7 7 6 4 2 2 2 2 2 3 3 4 4 5 4 3 3 3 3 2 2 2 2 2 2
2 1 3 4 2 2 3 3 3 6 6 7 7 7 7 8 6 5 6 7 7 7 7 8 8 7 5 4 3 3 2 2 2 2 4 5 5 5 4 3 3 4 3 4 4 3 2 2 2
2 0 2 3 2 2 1 2 2 6 8 8 9 9 9 7 5 6 6 7 8 8 8 8 8 7 7 5 4 2 2 2 2 2 2 4 4 5 5 5 4 4 4 4 4 4 2 2 3
1 3 3 1 2 4 3 4 2 2 3 4 6 7 7 9 8 7 7 7 7 8 9 9 8 8 7 5 3 2 1 1 1 1 2 3 4 5 5 6 5 4 5 4 5 5 5 3 3
2 4 3 2 3 2 2 2 6 3 3 6 7 8 9 9 8 7 8 8 9 9 7 7 7 7 6 6 5 5 4 3 3 2 2 3 4 4 5 5 5 5 4 5 5 5 4 4 3
3 2 4 3 3 3 3 1 8 2 5 8 9 10 10 9 9 9 9 9 8 7 7 6 6 6 6 6 7 5 4 3 2 1 2 3 2 3 4 5 5 5 4 5 5 5 5 4 4
5 7 7 6 6 2 1 2 7 5 8 6 7 9 10 9 9 8 7 6 6 6 6 7 7 6 6 7 6 6 6 4 4 3 3 3 2 2 4 4 4 5 5 5 6 5 6 5 5
5 7 5 6 5 4 3 2 10 8 7 7 8 9 9 9 8 8 7 7 7 8 8 7 8 7 6 7 6 6 6 6 6 4 4 3 2 2 3 4 4 4 5 5 5 5 6 6 6
4 9 8 5 4 5 3 4 9 6 5 4 5 6 7 7 7 8 8 7 8 8 8 8 8 7 6 7 6 5 5 4 3 4 3 3 3 3 3 3 4 4 4 5 4 4 5 5 6
6 3 7 8 3 1 5 7 9 3 2 1 4 6 7 8 8 8 7 7 7 8 8 8 8 6 6 6 6 5 5 4 4 3 3 3 3 3 3 4 4 4 4 4 4 3 4 4 5
5 10 7 7 6 2 5 5 5 5 4 2 4 6 7 6 7 6 6 6 6 6 6 7 7 7 6 6 5 5 4 4 4 3 3 3 3 3 3 4 4 4 4 4 4 3 3 3 4
5 5 6 5 6 7 2 8 8 8 7 7 8 7 8 8 8 7 6 5 5 5 6 6 6 6 5 5 5 4 4 4 4 3 3 3 3 3 4 4 3 3 4 4 4 4 3 4 4
5 8 9 7 5 5 5 10 7 6 7 7 7 6 6 6 6 5 5 5 5 6 6 7 7 6 6 5 5 4 4 3 3 3 3 3 3 3 3 3 3 3 4 3 4 4 4 4 4
Wind_Direction
150 136 138 85 55 49 27 350 22 69 62 59 85 90 96 81 107 134 127 131 129 133 137 136 132 129 124 120 116 113 113 113 113 114 116 118 118 118 118 117 116 115 114 114 114 114 117 118 118
143 148 100 60 72 55 352 342 38 60 123 118 83 78 75 70 73 106 127 135 130 130 128 137 136 131 128 124 120 117 117 116 115 115 117 119 119 119 117 118 116 115 115 116 116 117 118 120 121
159 155 83 67 77 126 175 325 119 102 100 86 81 68 75 99 119 131 144 135 123 125 126 142 137 135 132 128 124 123 122 119 117 117 119 119 118 119 119 119 116 115 116 117 117 119 119 119 120
131 63 54 64 55 288 180 171 140 120 71 59 90 73 67 94 133 133 136 133 126 125 132 144 139 138 136 133 130 128 125 123 122 122 122 121 121 120 120 119 116 115 116 116 117 120 119 119 119
70 73 56 43 8 355 116 153 126 109 84 70 87 87 59 45 105 123 132 132 132 129 132 144 142 142 141 138 135 132 129 127 126 124 124 123 122 121 119 118 116 116 116 116 118 119 120 121 121
60 64 72 42 352 26 79 109 96 93 100 95 89 93 66 101 119 131 130 127 132 133 131 142 147 147 145 142 139 136 133 131 130 129 127 123 122 123 121 120 118 118 117 116 118 118 119 117 117
93 85 110 147 161 135 166 118 111 118 111 115 113 99 96 123 128 126 122 122 127 128 125 130 141 146 147 145 144 141 137 136 135 132 128 126 124 124 123 122 122 120 120 119 119 120 119 119 120
115 94 80 142 174 215 159 121 123 123 117 116 115 134 164 162 133 119 113 116 123 122 121 119 113 114 126 140 147 144 140 140 140 137 134 132 129 126 123 119 124 125 126 125 122 118 120 121 122
85 74 130 209 186 201 153 133 135 102 112 115 115 142 149 138 132 127 126 130 143 145 135 132 128 126 125 138 152 145 144 142 137 135 135 116 84 86 106 125 132 132 132 129 124 119 116 115 118
81 109 222 215 186 165 157 151 149 118 116 104 86 98 125 139 146 151 157 163 167 170 169 161 151 148 144 151 124 101 105 112 101 93 96 91 88 88 107 126 139 142 137 130 122 116 105 95 92
104 172 223 209 160 138 142 147 138 131 169 184 157 145 145 152 159 165 170 172 175 173 175 172 166 162 155 133 126 110 97 102 106 110 108 103 89 71 70 65 79 92 102 88 96 91 86 95 104
85 302 199 198 128 130 148 144 129 172 207 162 151 150 154 164 173 176 176 176 169 171 181 174 171 168 165 149 143 140 136 135 140 142 135 124 118 120 116 110 98 77 76 86 84 92 94 100 117
53 337 7 110 109 123 115 120 136 196 113 120 135 149 163 172 177 176 169 174 174 180 184 181 177 175 169 160 169 163 165 167 173 164 163 160 162 173 161 150 135 119 106 109 109 107 106 109 121
340 28 8 65 103 109 114 97 101 144 125 131 146 161 172 176 175 170 171 183 187 188 187 183 182 178 172 176 182 179 177 174 173 181 185 182 178 177 172 172 168 167 146 134 131 128 116 120 130
50 40 18 33 81 105 107 70 214 156 138 145 160 167 173 179 179 187 189 189 189 188 182 183 185 178 182 184 191 191 186 177 184 196 195 190 184 183 178 178 186 191 163 145 123 112 105 122 131
44 50 11 302 70 119 126 225 230 151 149 157 167 171 176 186 192 196 193 190 184 177 179 186 193 183 187 187 189 189 190 185 194 195 195 195 190 183 179 185 199 189 163 155 148 137 122 127 143
33 30 305 300 266 125 144 227 202 161 160 169 174 176 176 186 203 202 193 187 181 182 181 181 191 185 188 188 182 182 187 193 199 196 192 195 192 187 184 193 198 178 166 172 183 149 147 162 181
274 302 302 276 267 135 183 241 189 172 172 179 180 181 184 195 207 199 188 182 177 179 179 181 191 189 182 171 159 169 185 201 197 199 198 193 194 191 188 197 195 172 167 178 175 155 149 162 175
173 194 281 269 246 151 208 247 221 179 181 185 188 191 199 207 203 186 181 176 171 175 179 185 187 185 172 166 172 179 197 199 202 209 201 195 195 191 191 198 187 180 187 194 177 157 161 170 145
151 161 296 317 26 111 180 294 255 191 203 199 195 198 202 197 189 189 187 182 182 184 186 186 190 185 182 183 174 171 170 189 197 212 206 202 198 197 200 194 192 188 188 191 182 164 158 179 168
210 191 211 212 35 42 72 343 308 236 215 210 204 200 203 200 198 195 194 195 191 192 192 193 192 187 184 173 144 122 102 70 141 205 214 217 206 204 203 197 196 194 190 197 195 184 177 190 196
243 229 181 141 93 351 62 295 286 256 250 225 213 200 203 202 196 197 198 198 200 200 192 191 184 182 178 168 171 174 185 200 212 204 214 226 216 215 208 202 200 203 199 201 203 196 188 179 194
201 72 90 89 110 52 29 130 285 300 251 240 221 209 206 199 194 200 204 203 199 191 184 183 177 181 179 180 186 188 201 206 200 196 223 236 229 223 213 206 201 204 207 210 208 195 196 191 192
123 71 54 48 65 43 278 171 277 238 225 238 220 209 202 195 194 202 201 189 183 179 176 174 176 186 185 187 188 192 202 200 197 207 218 229 233 230 220 210 205 208 209 213 212 207 203 204 204
93 86 35 8 16 260 287 221 253 254 240 225 217 207 197 188 189 192 189 187 183 182 181 179 182 191 188 189 194 199 203 200 204 209 215 218 225 230 230 218 210 211 212 213 207 208 213 207 207
157 134 151 184 212 277 321 247 259 271 270 231 200 183 176 182 189 193 192 189 189 188 184 181 187 192 187 190 197 196 194 194 204 210 210 216 226 234 233 226 221 221 216 215 204 208 214 209 214
132 148 152 126 148 315 296 296 303 327 1 104 150 157 177 187 191 193 186 184 187 188 187 184 183 184 185 190 189 188 190 196 207 212 213 221 231 236 232 230 229 223 214 210 200 211 219 212 215
136 140 106 116 138 227 298 291 262 282 273 238 194 189 192 189 189 190 185 183 184 183 180 175 176 181 183 184 190 193 193 200 205 209 218 223 233 239 239 237 230 224 217 209 202 207 214 218 225
112 104 105 109 143 150 220 268 231 226 228 222 218 203 194 191 191 189 184 175 168 166 167 172 176 175 177 184 188 188 191 195 199 213 227 228 232 233 236 234 227 222 220 210 203 207 203 214 226
166 163 146 149 191 167 168 261 261 237 236 221 222 209 198 192 184 176 168 157 160 169 173 178 180 181 185 183 182 188 189 191 201 218 229 228 231 234 232 229 227 229 226 212 208 214 211 213 224